Weather History for Carmi, IL

Change the Weather History Date:

Saturday, December 22, 2012

  Actual Average (KEVV) Record (KEVV)
Temperature  
Mean Temperature 33 °F 34 °F  
Max Temperature 43 °F 42 °F 64 °F (1900)
Min Temperature 23 °F 26 °F -15 °F (1989)
Degree Days  
Heating Degree Days 32 31  
Month to date heating degree days 627  
Since 1 July heating degree days 1488  
Cooling Degree Days 0 0  
Month to date cooling degree days 0  
Year to date cooling degree days 1397  
Moisture  
Dew Point 24 °F    
Average Humidity 72    
Maximum Humidity 89    
Minimum Humidity 44    
Precipitation  
Precipitation 0.00 in 0.12 in 1.52 in (1907)
Month to date precipitation 2.74  
Year to date precipitation 44.29  
Snow  
Snow 0.00 in 0.10 in 19.30 in (2004)
Month to date snowfall 2.0  
Since 1 July snowfall 2.3  
Snow Depth -    
Sea Level Pressure  
Sea Level Pressure 30.21 in    
Wind  
Wind Speed 5 mph (South)    
Max Wind Speed 10 mph    
Max Gust Speed -    
Visibility 10 miles    
Events      
T = Trace of Precipitation, MM = Missing Value Source: NWS Daily Summary

Daily Weather History Graph

Daily Weather History Graph

Search for Another Location

Airport:

Trip Planner

Search our weather history database for the weather conditions in past years. The results will help you decide how hot, cold, wet, or windy it might be!

Date:

Astronomy

Dec. 22, 2012 Rise Set
Actual Time 7:05 AM CST 4:36 PM CST
Civil Twilight 6:36 AM CST 5:06 PM CST
Nautical Twilight 6:03 AM CST 5:39 PM CST
Astronomical Twilight 5:31 AM CST 6:11 PM CST
Moon 12:51 PM CST (12/22) 1:53 AM CST (12/22)
Length of Visible Light 10h 30m
Length of Day
9h 31m
Waxing Gibbous, 74% of the Moon is Illuminated
Dec 22
Waxing Gibbous
Dec 28
Full
Jan 4
Last Quarter
Jan 11
New
Jan 18
First Quarter

Hourly Weather History & Observations

Time (CST) Temp. Windchill Dew Point Humidity Pressure Visibility Wind Dir Wind Speed Gust Speed Precip Events Conditions
12:15 AM 26.6 °F 20.0 °F 20.7 °F 78% 30.27 in 10.0 mi WNW 5.8 mph - N/A   Clear
12:35 AM 27.0 °F 23.0 °F 20.1 °F 75% 30.26 in 10.0 mi WNW 3.5 mph - N/A   Clear
12:55 AM 25.7 °F 21.5 °F 19.4 °F 77% 30.27 in 10.0 mi NW 3.5 mph - N/A   Clear
1:15 AM 25.7 °F 21.5 °F 19.8 °F 78% 30.27 in 10.0 mi NW 3.5 mph - N/A   Clear
1:35 AM 25.3 °F 19.7 °F 20.1 °F 81% 30.28 in 10.0 mi WNW 4.6 mph - N/A   Clear
1:55 AM 25.3 °F 19.7 °F 20.3 °F 81% 30.28 in 10.0 mi WNW 4.6 mph - N/A   Clear
2:15 AM 25.9 °F - 19.8 °F 78% 30.28 in 10.0 mi Calm Calm - N/A   Clear
2:35 AM 25.7 °F 20.1 °F 19.0 °F 76% 30.28 in 10.0 mi West 4.6 mph - N/A   Clear
2:55 AM 25.7 °F 19.0 °F 19.0 °F 76% 30.29 in 10.0 mi West 5.8 mph - N/A   Clear
3:15 AM 25.7 °F 21.5 °F 19.0 °F 76% 30.30 in 10.0 mi WNW 3.5 mph - N/A   Clear
3:35 AM 25.7 °F 21.5 °F 19.0 °F 76% 30.30 in 10.0 mi West 3.5 mph - N/A   Clear
3:55 AM 25.0 °F 20.7 °F 19.2 °F 79% 30.30 in 10.0 mi West 3.5 mph - N/A   Clear
4:15 AM 24.8 °F - 20.1 °F 82% 30.30 in 10.0 mi Calm Calm - N/A   Clear
4:35 AM 23.9 °F 19.5 °F 20.3 °F 86% 30.30 in 10.0 mi WSW 3.5 mph - N/A   Clear
4:55 AM 23.9 °F 19.5 °F 20.5 °F 87% 30.30 in 10.0 mi WSW 3.5 mph - N/A   Clear
5:15 AM 23.9 °F - 20.3 °F 86% 30.30 in 10.0 mi Calm Calm - N/A   Clear
5:35 AM 23.5 °F - 19.9 °F 86% 30.31 in 10.0 mi Calm Calm - N/A   Clear
5:55 AM 23.4 °F - 19.9 °F 87% 30.30 in 10.0 mi Calm Calm - N/A   Clear
6:15 AM 23.7 °F - 20.5 °F 87% 30.31 in 10.0 mi Calm Calm - N/A   Clear
6:35 AM 23.4 °F - 20.5 °F 89% 30.32 in 10.0 mi Calm Calm - N/A   Clear
6:55 AM 23.4 °F - 20.1 °F 87% 30.32 in 10.0 mi Calm Calm - N/A   Clear
7:15 AM 23.0 °F 18.4 °F 19.8 °F 87% 30.33 in 10.0 mi SSW 3.5 mph - N/A   Clear
7:35 AM 23.7 °F 17.8 °F 20.8 °F 89% 30.33 in 10.0 mi SW 4.6 mph - N/A   Clear
7:55 AM 25.0 °F 20.7 °F 21.2 °F 86% 30.33 in 10.0 mi SSW 3.5 mph - N/A   Clear
8:15 AM 26.4 °F 20.9 °F 21.4 °F 81% 30.32 in 10.0 mi SW 4.6 mph - N/A   Clear
8:35 AM 27.7 °F - 22.3 °F 80% 30.32 in 10.0 mi Calm Calm - N/A   Clear
8:55 AM 28.8 °F 25.0 °F 21.6 °F 74% 30.31 in 10.0 mi SSW 3.5 mph - N/A   Clear
9:15 AM 30.0 °F 25.2 °F 22.1 °F 72% 30.31 in 10.0 mi South 4.6 mph - N/A   Clear
9:35 AM 30.7 °F 27.3 °F 22.8 °F 72% 30.31 in 10.0 mi South 3.5 mph - N/A   Clear
9:55 AM 31.8 °F 27.3 °F 22.6 °F 69% 30.30 in 10.0 mi SE 4.6 mph - N/A   Clear
10:15 AM 32.0 °F 27.5 °F 22.5 °F 68% 30.30 in 10.0 mi SSE 4.6 mph - N/A   Clear
10:35 AM 33.6 °F 29.4 °F 22.6 °F 64% 30.30 in 10.0 mi SE 4.6 mph - N/A   Clear
10:55 AM 34.9 °F 32.0 °F 23.0 °F 62% 30.29 in 10.0 mi South 3.5 mph - N/A   Clear
11:15 AM 35.8 °F 31.9 °F 23.2 °F 60% 30.28 in 10.0 mi SSE 4.6 mph - N/A   Clear
11:35 AM 37.4 °F 33.8 °F 23.9 °F 58% 30.27 in 10.0 mi ESE 4.6 mph - N/A   Clear
11:55 AM 38.3 °F - 23.0 °F 54% 30.26 in 10.0 mi Calm Calm - N/A   Clear
12:15 PM 38.7 °F 34.3 °F 24.3 °F 56% 30.24 in 10.0 mi SE 5.8 mph - N/A   Clear
12:35 PM 39.7 °F 34.9 °F 23.0 °F 51% 30.22 in 10.0 mi SSE 6.9 mph - N/A   Clear
12:55 PM 40.3 °F 35.5 °F 22.5 °F 49% 30.21 in 10.0 mi SE 6.9 mph - N/A   Clear
1:15 PM 41.2 °F 36.6 °F 22.1 °F 47% 30.19 in 10.0 mi South 6.9 mph - N/A   Clear
1:35 PM 42.1 °F 37.7 °F 23.7 °F 48% 30.19 in 10.0 mi South 6.9 mph - N/A   Clear
1:55 PM 42.8 °F 38.0 °F 22.3 °F 44% 30.19 in 10.0 mi SSE 8.1 mph - N/A   Clear
2:15 PM 43.0 °F 37.7 °F 25.2 °F 49% 30.18 in 10.0 mi SSE 9.2 mph - N/A   Clear
2:35 PM 43.3 °F 38.6 °F 25.3 °F 49% 30.17 in 10.0 mi SSE 8.1 mph - N/A   Clear
2:55 PM 43.9 °F 39.3 °F 25.5 °F 48% 30.17 in 10.0 mi SSE 8.1 mph - N/A   Clear
3:15 PM 43.5 °F 38.9 °F 25.5 °F 49% 30.16 in 10.0 mi SE 8.1 mph - N/A   Clear
3:35 PM 43.0 °F 38.2 °F 27.5 °F 54% 30.16 in 10.0 mi SSE 8.1 mph - N/A   Clear
3:55 PM 42.3 °F 37.3 °F 28.2 °F 58% 30.15 in 10.0 mi SE 8.1 mph - N/A   Clear
4:15 PM 40.6 °F 35.4 °F 28.8 °F 63% 30.15 in 10.0 mi ESE 8.1 mph - N/A   Clear
4:35 PM 38.1 °F 32.9 °F 28.8 °F 69% 30.14 in 10.0 mi SE 6.9 mph - N/A   Clear
4:55 PM 36.7 °F 29.9 °F 28.2 °F 71% 30.13 in 10.0 mi SE 9.2 mph - N/A   Clear
5:15 PM 36.9 °F 29.6 °F 27.3 °F 68% 30.12 in 10.0 mi SE 10.4 mph - N/A   Clear
5:35 PM 36.0 °F 29.0 °F 28.0 °F 73% 30.11 in 10.0 mi SE 9.2 mph - N/A   Clear
5:55 PM 35.1 °F 29.3 °F 29.1 °F 79% 30.11 in 10.0 mi SE 6.9 mph - N/A   Clear
6:15 PM 33.6 °F 27.5 °F 28.0 °F 80% 30.10 in 10.0 mi SSE 6.9 mph - N/A   Clear
6:35 PM 34.5 °F 27.3 °F 28.6 °F 79% 30.09 in 10.0 mi SE 9.2 mph - N/A   Clear
6:55 PM 35.6 °F 29.2 °F 27.9 °F 73% 30.09 in 10.0 mi SSE 8.1 mph - N/A   Clear
7:15 PM 35.6 °F 29.2 °F 27.5 °F 72% 30.08 in 10.0 mi SSE 8.1 mph - N/A   Clear
7:35 PM 35.2 °F 29.5 °F 27.3 °F 73% 30.07 in 10.0 mi SSE 6.9 mph - N/A   Clear
7:55 PM 34.3 °F 28.4 °F 27.3 °F 76% 30.07 in 10.0 mi SSE 6.9 mph - N/A   Clear
8:15 PM 34.0 °F 27.2 °F 26.6 °F 74% 30.06 in 10.0 mi South 8.1 mph - N/A   Clear
8:35 PM 34.5 °F 28.6 °F 26.4 °F 72% 30.05 in 10.0 mi South 6.9 mph - N/A   Clear
8:55 PM 33.6 °F 28.4 °F 27.1 °F 77% 30.05 in 10.0 mi SSE 5.8 mph - N/A   Clear
9:15 PM 34.0 °F 31.0 °F 26.4 °F 74% 30.05 in 10.0 mi South 3.5 mph - N/A   Clear
9:35 PM 34.0 °F 28.8 °F 25.5 °F 71% 30.05 in 10.0 mi SSE 5.8 mph - N/A   Clear
9:55 PM 33.3 °F 27.9 °F 26.1 °F 75% 30.05 in 10.0 mi South 5.8 mph - N/A   Clear
10:15 PM 31.8 °F 25.4 °F 25.9 °F 79% 30.04 in 10.0 mi SSE 6.9 mph - N/A   Clear
10:35 PM 31.8 °F 26.2 °F 27.0 °F 82% 30.03 in 10.0 mi SSE 5.8 mph - N/A   Clear
11:15 PM 32.7 °F 26.4 °F 27.5 °F 81% 30.02 in 10.0 mi South 6.9 mph - N/A   Clear
11:35 PM 34.0 °F 28.0 °F 27.5 °F 77% 30.01 in 10.0 mi South 6.9 mph - N/A   Clear
11:55 PM 35.1 °F 28.6 °F 27.9 °F 75% 30.01 in 10.0 mi South 8.1 mph - N/A   Clear